K9VSK-9 Weather Reports


Display with metric or nautical units.
time (UTC)temp
F
wind
direction
speed
MPH
gust
MPH
rain 1hr
in
rain 24hr
in
rain mn
in
humidity
%
barometer
mb
20260902203305 93 231 7.0 0.0 0.00 0.00 0.00 66 1013.6
20260902202804 93 272 8.0 0.0 0.00 0.00 0.00 66 1013.6
20260902202306 93 264 9.0 0.0 0.00 0.00 0.00 65 1013.7
20260902201804 93 268 7.0 0.0 0.00 0.00 0.00 65 1013.7
20260902201303 93 252 8.0 0.0 0.00 0.00 0.00 66 1013.7
20260902200803 93 242 8.0 0.0 0.00 0.00 0.00 68 1013.7
20260902200303 93 260 11.0 0.0 0.00 0.00 0.00 68 1013.7
20260902195803 93 250 9.0 0.0 0.00 0.00 0.00 67 1013.8
20260902195306 93 259 6.0 0.0 0.00 0.00 0.00 69 1013.8
20260902194802 93 259 6.0 0.0 0.00 0.00 0.00 68 1013.9
20260902194302 93 248 9.0 0.0 0.00 0.00 0.00 69 1013.9
20260902193801 92 234 5.0 0.0 0.00 0.00 0.00 68 1014.0
20260902193301 92 242 3.0 0.0 0.00 0.00 0.00 69 1014.0
20260902192801 92 256 7.0 0.0 0.00 0.00 0.00 68 1014.1
20260902192301 92 230 7.0 0.0 0.00 0.00 0.00 69 1014.1
20260902191800 92 229 4.0 0.0 0.00 0.00 0.00 69 1014.2
20260902191300 92 233 7.0 0.0 0.00 0.00 0.00 70 1014.3
20260902190800 92 227 6.0 0.0 0.00 0.00 0.00 70 1014.3
20260902190300 92 256 3.0 0.0 0.00 0.00 0.00 69 1014.3
20260902185759 92 248 8.0 0.0 0.00 0.00 0.00 69 1014.4
20260902185259 92 275 6.0 0.0 0.00 0.00 0.00 72 1014.5
20260902184759 92 246 7.0 0.0 0.00 0.00 0.00 71 1014.6
20260902184258 91 240 4.0 0.0 0.00 0.00 0.00 71 1014.6
20260902183758 91 256 5.0 0.0 0.00 0.00 0.00 73 1014.6
20260902183258 91 245 8.0 0.0 0.00 0.00 0.00 70 1014.6
20260902182758 91 253 9.0 0.0 0.00 0.00 0.00 69 1014.6
20260902182257 91 297 9.0 0.0 0.00 0.00 0.00 72 1014.5
20260902181757 90 265 8.0 0.0 0.00 0.00 0.00 71 1014.6
20260902181257 90 284 6.0 0.0 0.00 0.00 0.00 71 1014.7
20260902180756 90 262 10.0 0.0 0.00 0.00 0.00 71 1014.7
20260902180256 90 244 7.0 0.0 0.00 0.00 0.00 71 1014.8
20260902175756 90 258 9.0 0.0 0.00 0.00 0.00 71 1014.8
20260902175256 90 272 7.0 0.0 0.00 0.00 0.00 73 1014.8
20260902174755 89 277 8.0 0.0 0.00 0.00 0.00 73 1014.9
20260902174255 89 254 11.0 0.0 0.00 0.00 0.00 74 1014.9
20260902173755 89 241 12.0 0.0 0.00 0.00 0.00 72 1014.9
20260902173255 89 275 11.0 0.0 0.00 0.00 0.00 73 1015.0
20260902172754 89 278 9.0 0.0 0.00 0.00 0.00 73 1014.9
20260902172254 89 254 4.0 0.0 0.00 0.00 0.00 74 1015.0
20260902171754 88 269 6.0 0.0 0.00 0.00 0.00 74 1015.1
20260902171253 88 278 9.0 0.0 0.00 0.00 0.00 74 1015.1
20260902170753 88 263 8.0 0.0 0.00 0.00 0.00 74 1015.2
20260902170253 88 269 8.0 0.0 0.00 0.00 0.00 76 1015.2
20260902165752 88 259 6.0 0.0 0.00 0.00 0.00 75 1015.2
20260902165252 87 259 9.0 0.0 0.00 0.00 0.00 76 1015.3
20260902164752 87 275 8.0 0.0 0.00 0.00 0.00 74 1015.4
20260902164252 87 261 9.0 0.0 0.00 0.00 0.00 75 1015.4
20260902162751 87 296 10.0 0.0 0.00 0.00 0.00 77 1015.4
20260902162251 86 274 9.0 0.0 0.00 0.00 0.00 78 1015.2
20260902161750 86 288 7.0 0.0 0.00 0.00 0.00 80 1015.4
20260902161250 85 283 8.0 0.0 0.00 0.00 0.00 78 1015.3
20260902160749 85 272 10.0 0.0 0.00 0.00 0.00 79 1015.5
20260902160249 85 261 10.0 0.0 0.00 0.00 0.00 80 1015.3
20260902160040 85 253 4.0 0.0 0.00 0.00 0.00 79 1015.3
20260902155749 85 253 4.0 0.0 0.00 0.00 0.00 79 1015.3
20260902154917 85 244 10.0 0.0 0.00 0.00 0.00 80 1015.2
20260902154748 85 244 10.0 0.0 0.00 0.00 0.00 80 1015.2
20260902153951 84 267 8.0 0.0 0.00 0.00 0.00 80 1015.2
20260902153747 84 267 8.0 0.0 0.00 0.00 0.00 80 1015.2
20260902153515 84 260 11.0 0.0 0.00 0.00 0.00 81 1015.2
20260902153337 84 260 11.0 0.0 0.00 0.00 0.00 81 1015.2
20260902153247 84 260 11.0 0.0 0.00 0.00 0.00 81 1015.2
20260902152927 84 254 9.0 0.0 0.00 0.00 0.00 80 1015.2
20260902152746 84 254 9.0 0.0 0.00 0.00 0.00 80 1015.2
20260902152246 84 245 13.0 0.0 0.00 0.00 0.00 81 1015.2
20260902151746 83 253 8.0 0.0 0.00 0.00 0.00 83 1015.2
20260902151436 82 260 9.0 0.0 0.00 0.00 0.00 82 1015.2
20260902151245 82 260 9.0 0.0 0.00 0.00 0.00 82 1015.2
20260902150745 82 238 11.0 0.0 0.00 0.00 0.00 81 1015.1
20260902150438 82 256 13.0 0.0 0.00 0.00 0.00 82 1015.1
20260902150245 82 248 8.0 0.0 0.00 0.00 0.00 81 1015.1
20260902150000 82 256 13.0 0.0 0.00 0.00 0.00 82 1015.1
20260902145745 82 256 13.0 0.0 0.00 0.00 0.00 82 1015.1
20260902145458 81 258 10.0 0.0 0.00 0.00 0.00 84 1015.0
20260902145447 82 245 11.0 0.0 0.00 0.00 0.00 84 1015.0
20260902145244 82 245 11.0 0.0 0.00 0.00 0.00 84 1015.0
20260902144428 81 258 10.0 0.0 0.00 0.00 0.00 84 1015.0
20260902144245 81 258 10.0 0.0 0.00 0.00 0.00 84 1015.0
20260902143746 81 259 11.0 0.0 0.00 0.00 0.00 83 1015.0
20260902143434 81 215 8.0 0.0 0.00 0.00 0.00 85 1015.0
20260902143243 81 215 8.0 0.0 0.00 0.00 0.00 85 1015.0
20260902142941 81 273 7.0 0.0 0.00 0.00 0.00 86 1015.0
20260902142744 81 273 7.0 0.0 0.00 0.00 0.00 86 1015.0
20260902142243 80 248 9.0 0.0 0.00 0.00 0.00 86 1015.0
20260902141742 80 240 6.0 0.0 0.00 0.00 0.00 85 1015.0
20260902141441 80 259 8.0 0.0 0.00 0.00 0.00 85 1015.1
20260902141243 80 259 8.0 0.0 0.00 0.00 0.00 85 1015.1
20260902140743 80 233 7.0 0.0 0.00 0.00 0.00 86 1015.0
20260902134240 79 266 7.0 0.0 0.00 0.00 0.00 87 1015.2
20260902134011 79 240 5.0 0.0 0.00 0.00 0.00 87 1015.2
20260902133740 79 240 5.0 0.0 0.00 0.00 0.00 87 1015.2
20260902132742 78 248 4.0 0.0 0.00 0.00 0.00 88 1015.3
20260902131239 77 247 9.0 0.0 0.00 0.00 0.00 90 1015.3
20260902130738 76 242 9.0 0.0 0.00 0.00 0.00 91 1015.3
20260902130239 76 219 7.0 0.0 0.00 0.00 0.00 92 1015.3
20260902130133 75 234 4.0 0.0 0.00 0.00 0.00 93 1015.3
20260902125739 75 234 4.0 0.0 0.00 0.00 0.00 93 1015.3
20260902125237 75 223 4.0 0.0 0.00 0.00 0.00 93 1015.3
20260902121236 71 215 3.0 0.0 0.00 0.00 0.00 94 1015.2
20260902121126 71 229 2.0 0.0 0.00 0.00 0.00 94 1015.3
20260902120723 71 229 1.0 0.0 0.00 0.00 0.00 94 1015.1
20260902120529 71 229 2.0 0.0 0.00 0.00 0.00 94 1015.3
20260902120236 71 229 2.0 0.0 0.00 0.00 0.00 94 1015.3
20260902115521 71 229 1.0 0.0 0.00 0.00 0.00 94 1015.1
20260902115235 71 229 1.0 0.0 0.00 0.00 0.00 94 1015.1
20260902114526 71 226 2.0 0.0 0.00 0.00 0.00 94 1015.1
20260902114351 71 226 2.0 0.0 0.00 0.00 0.00 94 1015.1
20260902114234 71 226 2.0 0.0 0.00 0.00 0.00 94 1015.1
20260902114048 71 226 3.0 0.0 0.00 0.00 0.00 94 1015.1
20260902113733 71 226 3.0 0.0 0.00 0.00 0.00 94 1015.1
20260902113040 71 241 3.0 0.0 0.00 0.00 0.00 93 1015.0
20260902113007 71 241 3.0 0.0 0.00 0.00 0.00 93 1015.0
20260902112734 71 241 3.0 0.0 0.00 0.00 0.00 93 1015.0
20260902112234 71 233 2.0 0.0 0.00 0.00 0.00 93 1015.0
20260902112028 71 233 3.0 0.0 0.00 0.00 0.00 93 1015.0
20260902111732 71 233 3.0 0.0 0.00 0.00 0.00 93 1015.0
20260902111232 71 233 3.0 0.0 0.00 0.00 0.00 94 1015.0
20260902110732 71 234 3.0 0.0 0.00 0.00 0.00 94 1015.0
20260902110231 71 234 2.0 0.0 0.00 0.00 0.00 93 1015.0
20260902105731 71 233 2.0 0.0 0.00 0.00 0.00 93 1015.1
20260902104732 71 234 2.0 0.0 0.00 0.00 0.00 93 1015.0
20260902104231 72 233 2.0 0.0 0.00 0.00 0.00 92 1014.9
20260902103730 72 234 3.0 0.0 0.00 0.00 0.00 93 1014.8
20260902103230 72 234 1.0 0.0 0.00 0.00 0.00 93 1014.8
20260902102729 71 233 1.0 0.0 0.00 0.00 0.00 93 1014.7
20260902102229 71 234 1.0 0.0 0.00 0.00 0.00 93 1014.7
20260902102000 71 234 2.0 0.0 0.00 0.00 0.00 93 1014.7
20260902101729 71 234 2.0 0.0 0.00 0.00 0.00 93 1014.7
20260902101228 72 234 2.0 0.0 0.00 0.00 0.00 93 1014.8
20260902100728 72 233 3.0 0.0 0.00 0.00 0.00 93 1014.8
20260902100451 72 232 4.0 0.0 0.00 0.00 0.00 92 1014.8
20260902100228 72 232 4.0 0.0 0.00 0.00 0.00 92 1014.8
20260902095422 72 221 3.0 0.0 0.00 0.00 0.00 92 1014.9
20260902095227 72 221 3.0 0.0 0.00 0.00 0.00 92 1014.9
20260902094727 72 217 3.0 0.0 0.00 0.00 0.00 92 1014.9
20260902094701 72 217 2.0 0.0 0.00 0.00 0.00 92 1014.8
20260902094456 72 217 2.0 0.0 0.00 0.00 0.00 92 1014.8
20260902094227 72 217 2.0 0.0 0.00 0.00 0.00 92 1014.8
20260902093227 72 217 2.0 0.0 0.00 0.00 0.00 92 1014.8
20260902092727 72 217 2.0 0.0 0.00 0.00 0.00 92 1014.7
20260902091727 73 217 2.0 0.0 0.00 0.00 0.00 92 1014.8
20260902091226 73 217 3.0 0.0 0.00 0.00 0.00 92 1014.8
20260902090726 72 217 2.0 0.0 0.00 0.00 0.00 92 1014.7
20260902090226 72 217 1.0 0.0 0.00 0.00 0.00 92 1014.7
20260902085725 72 217 1.0 0.0 0.00 0.00 0.00 92 1014.7
20260902085224 72 217 1.0 0.0 0.00 0.00 0.00 92 1014.7
20260902084725 73 217 1.0 0.0 0.00 0.00 0.00 92 1014.6
20260902084225 73 217 2.0 0.0 0.00 0.00 0.00 92 1014.6
20260902084003 73 217 3.0 0.0 0.00 0.00 0.00 92 1014.6
20260902083724 73 217 3.0 0.0 0.00 0.00 0.00 92 1014.6
20260902083224 73 217 2.0 0.0 0.00 0.00 0.00 92 1014.5
20260902082930 73 217 1.0 0.0 0.00 0.00 0.00 92 1014.6
20260902082724 73 217 1.0 0.0 0.00 0.00 0.00 92 1014.6
20260902082223 73 217 2.0 0.0 0.00 0.00 0.00 92 1014.6
20260902081223 73 217 0.0 0.0 0.00 0.00 0.00 91 1014.5
20260902080721 73 217 2.0 0.0 0.00 0.00 0.00 91 1014.4
20260902080222 73 244 3.0 0.0 0.00 0.00 0.00 91 1014.4
20260902075722 74 244 2.0 0.0 0.00 0.00 0.00 91 1014.4
20260902075222 74 244 2.0 0.0 0.00 0.00 0.00 91 1014.5
20260902074721 74 244 1.0 0.0 0.00 0.00 0.00 91 1014.5
20260902074220 74 244 2.0 0.0 0.00 0.00 0.00 91 1014.6
20260902073721 74 244 3.0 0.0 0.00 0.00 0.00 91 1014.6
20260902072720 74 276 2.0 0.0 0.00 0.00 0.00 90 1014.6
20260902072220 74 277 3.0 0.0 0.00 0.00 0.00 90 1014.6
20260902071758 74 277 2.0 0.0 0.00 0.00 0.00 90 1014.6
20260902071719 74 277 2.0 0.0 0.00 0.00 0.00 90 1014.6
20260902071219 75 277 3.0 0.0 0.00 0.00 0.00 90 1014.6
20260902070719 75 276 3.0 0.0 0.00 0.00 0.00 90 1014.6
20260902070220 75 276 2.0 0.0 0.00 0.00 0.00 90 1014.6
20260902065803 75 277 2.0 0.0 0.00 0.00 0.00 90 1014.7
20260902065718 75 277 2.0 0.0 0.00 0.00 0.00 90 1014.7
20260902065218 75 277 2.0 0.0 0.00 0.00 0.00 90 1014.7
20260902064717 75 276 2.0 0.0 0.00 0.00 0.00 89 1014.8
20260902064219 75 277 2.0 0.0 0.00 0.00 0.00 90 1014.9
20260902063717 75 282 3.0 0.0 0.00 0.00 0.00 90 1014.8
20260902063217 75 215 1.0 0.0 0.00 0.00 0.00 90 1014.9
20260902062717 75 215 2.0 0.0 0.00 0.00 0.00 90 1014.9
20260902062217 76 215 1.0 0.0 0.00 0.00 0.00 90 1014.9
20260902061215 76 215 2.0 0.0 0.00 0.00 0.00 89 1014.8
20260902060715 76 215 2.0 0.0 0.00 0.00 0.00 89 1014.9
20260902060214 76 223 2.0 0.0 0.00 0.00 0.00 89 1014.8
20260902055714 76 224 2.0 0.0 0.00 0.00 0.00 89 1014.8
20260902055215 76 236 2.0 0.0 0.00 0.00 0.00 89 1014.7
20260902054713 76 236 3.0 0.0 0.00 0.00 0.00 89 1014.7
20260902054415 76 236 2.0 0.0 0.00 0.00 0.00 89 1014.8
20260902054214 76 236 2.0 0.0 0.00 0.00 0.00 89 1014.8
20260902053713 76 236 2.0 0.0 0.00 0.00 0.00 90 1014.8
20260902053304 76 239 3.0 0.0 0.00 0.00 0.00 90 1014.8
20260902053213 76 239 3.0 0.0 0.00 0.00 0.00 90 1014.8
20260902052712 76 225 2.0 0.0 0.00 0.00 0.00 91 1014.7
20260902052212 76 204 2.0 0.0 0.00 0.00 0.00 91 1014.8
20260902051712 76 203 2.0 0.0 0.00 0.00 0.00 92 1014.8
20260902051211 76 204 1.0 0.0 0.00 0.00 0.00 91 1014.7
20260902050711 76 204 3.0 0.0 0.00 0.00 0.00 92 1014.7
20260902050211 76 204 3.0 0.0 0.00 0.00 0.00 91 1014.7
20260902045711 76 204 3.0 0.0 0.00 0.00 0.00 91 1014.8
20260902045210 76 218 3.0 0.0 0.00 0.00 0.00 91 1014.7
20260902044710 76 218 2.0 0.0 0.00 0.00 0.00 91 1014.7
20260902044210 76 218 2.0 0.0 0.00 0.00 0.00 91 1014.8
20260902043710 76 218 3.0 0.0 0.00 0.00 0.00 91 1014.7
20260902043209 76 209 2.0 0.0 0.00 0.00 0.00 91 1014.7
20260902042709 76 209 3.0 0.0 0.00 0.00 0.00 91 1014.7
20260902042209 76 209 2.0 0.0 0.00 0.00 0.00 91 1014.7
20260902041708 76 209 3.0 0.0 0.00 0.00 0.00 92 1014.7
20260902041208 77 214 4.0 0.0 0.00 0.00 0.00 92 1014.8
20260902040708 77 207 2.0 0.0 0.00 0.00 0.00 92 1014.8
20260902040208 77 207 4.0 0.0 0.00 0.00 0.00 92 1014.7
20260902035707 77 209 2.0 0.0 0.00 0.00 0.00 92 1014.7
20260902035207 77 209 4.0 0.0 0.00 0.00 0.00 92 1014.7
20260902034707 77 209 3.0 0.0 0.00 0.00 0.00 92 1014.8
20260902034206 77 209 3.0 0.0 0.00 0.00 0.00 92 1014.7
20260902033706 77 209 4.0 0.0 0.00 0.00 0.00 92 1014.8
20260902033206 77 209 3.0 0.0 0.00 0.00 0.00 92 1014.8
20260902032706 77 209 2.0 0.0 0.00 0.00 0.00 93 1014.8
20260902032205 77 209 2.0 0.0 0.00 0.00 0.00 93 1014.8
20260902031547 77 209 1.0 0.0 0.00 0.00 0.00 93 1014.9
20260902031418 77 209 1.0 0.0 0.00 0.00 0.00 93 1014.9
20260902031205 77 209 1.0 0.0 0.00 0.00 0.00 93 1014.9
20260902030704 77 209 2.0 0.0 0.00 0.00 0.00 93 1014.9
20260902030204 77 209 3.0 0.0 0.00 0.00 0.00 93 1014.8
20260902025851 77 209 3.0 0.0 0.00 0.00 0.00 93 1014.8
20260902025704 77 209 3.0 0.0 0.00 0.00 0.00 93 1014.8
20260902025204 77 209 2.0 0.0 0.00 0.00 0.00 93 1014.8
20260902024703 77 209 2.0 0.0 0.00 0.00 0.00 93 1014.7
20260902024203 77 209 1.0 0.0 0.00 0.00 0.00 93 1014.7
20260902023703 77 209 1.0 0.0 0.00 0.00 0.00 93 1014.7
20260902023202 77 209 1.0 0.0 0.00 0.00 0.00 92 1014.7
20260902022905 77 209 1.0 0.0 0.00 0.00 0.00 92 1014.7
20260902022702 77 209 1.0 0.0 0.00 0.00 0.00 92 1014.7
20260902021201 78 209 1.0 0.0 0.00 0.00 0.00 92 1014.6
20260902020702 78 209 1.0 0.0 0.00 0.00 0.00 92 1014.6
20260902020201 78 209 1.0 0.0 0.00 0.00 0.00 92 1014.5
20260902020038 78 209 1.0 0.0 0.00 0.00 0.00 92 1014.5
20260902015700 78 209 1.0 0.0 0.00 0.00 0.00 92 1014.5
20260902015434 78 209 0.0 0.0 0.00 0.00 0.00 92 1014.5
20260902015200 78 209 0.0 0.0 0.00 0.00 0.00 92 1014.5
20260902015015 79 209 2.0 0.0 0.00 0.00 0.00 91 1014.4
20260902014618 79 209 1.0 0.0 0.00 0.00 0.00 91 1014.4
20260902014256 79 209 1.0 0.0 0.00 0.00 0.00 91 1014.4
20260902014203 79 209 2.0 0.0 0.00 0.00 0.00 91 1014.4
20260902014200 79 209 1.0 0.0 0.00 0.00 0.00 91 1014.4
20260902014026 79 209 2.0 0.0 0.00 0.00 0.00 91 1014.4
20260902013659 79 209 2.0 0.0 0.00 0.00 0.00 91 1014.4
20260902013522 79 209 1.0 0.0 0.00 0.00 0.00 90 1014.4
20260902013352 80 209 1.0 0.0 0.00 0.00 0.00 90 1014.3
20260902013159 79 209 1.0 0.0 0.00 0.00 0.00 90 1014.4
20260902012936 80 209 1.0 0.0 0.00 0.00 0.00 90 1014.3
20260902012158 80 209 0.0 0.0 0.00 0.00 0.00 89 1014.2
20260902011753 80 209 0.0 0.0 0.00 0.00 0.00 89 1014.2
20260902011658 80 209 0.0 0.0 0.00 0.00 0.00 89 1014.2
20260902011536 81 209 0.0 0.0 0.00 0.00 0.00 89 1014.2
20260902011408 81 209 0.0 0.0 0.00 0.00 0.00 89 1014.2
20260902011158 81 209 0.0 0.0 0.00 0.00 0.00 89 1014.2
20260902010658 81 209 0.0 0.0 0.00 0.00 0.00 89 1014.1
20260902010453 81 209 1.0 0.0 0.00 0.00 0.00 89 1014.0
20260902010157 81 209 1.0 0.0 0.00 0.00 0.00 89 1014.1
20260902005657 81 209 1.0 0.0 0.00 0.00 0.00 89 1014.0
20260902005157 82 209 2.0 0.0 0.00 0.00 0.00 88 1014.0
20260902004657 82 209 1.0 0.0 0.00 0.00 0.00 87 1014.0
20260902004156 83 209 1.0 0.0 0.00 0.00 0.00 87 1014.1
20260902003657 83 209 2.0 0.0 0.00 0.00 0.00 86 1014.0
20260902003156 84 209 2.0 0.0 0.00 0.00 0.00 86 1014.0
20260902002655 84 209 2.0 0.0 0.00 0.00 0.00 85 1014.0
20260902002155 85 210 2.0 0.0 0.00 0.00 0.00 84 1014.0
20260902001657 85 209 2.0 0.0 0.00 0.00 0.00 83 1014.0
20260902001156 86 210 2.0 0.0 0.00 0.00 0.00 83 1014.0
20260902000655 86 209 2.0 0.0 0.00 0.00 0.00 82 1014.0
20260902000155 87 210 1.0 0.0 0.00 0.00 0.00 82 1014.0
20260901235655 87 210 1.0 0.0 0.00 0.00 0.00 81 1014.1
20260901235154 88 210 1.0 0.0 0.00 0.00 0.00 80 1014.1
20260901234654 88 210 3.0 0.0 0.00 0.00 0.00 78 1014.1
20260901234153 89 210 2.0 0.0 0.00 0.00 0.00 77 1014.1
20260901233153 90 209 2.0 0.0 0.00 0.00 0.00 76 1014.2
20260901232652 90 210 2.0 0.0 0.00 0.00 0.00 76 1014.2
20260901232152 90 242 3.0 0.0 0.00 0.00 0.00 75 1014.1
20260901231652 90 217 2.0 0.0 0.00 0.00 0.00 74 1014.1
20260901231152 91 226 2.0 0.0 0.00 0.00 0.00 75 1014.2
20260901230652 91 241 3.0 0.0 0.00 0.00 0.00 75 1014.1
20260901230152 91 235 3.0 0.0 0.00 0.00 0.00 72 1014.2
20260901225651 91 234 3.0 0.0 0.00 0.00 0.00 72 1014.2
20260901225151 92 248 3.0 0.0 0.00 0.00 0.00 71 1014.2
20260901224651 92 240 3.0 0.0 0.00 0.00 0.00 71 1014.2
20260901224151 92 267 4.0 0.0 0.00 0.00 0.00 70 1014.3
20260901222650 92 235 4.0 0.0 0.00 0.00 0.00 66 1014.3
20260901222149 92 234 4.0 0.0 0.00 0.00 0.00 69 1014.2
20260901221649 92 237 6.0 0.0 0.00 0.00 0.00 68 1014.2
20260901221149 93 254 4.0 0.0 0.00 0.00 0.00 66 1014.2
20260901220148 93 252 5.0 0.0 0.00 0.00 0.00 65 1014.2
20260901215648 93 261 6.0 0.0 0.00 0.00 0.00 64 1014.2
20260901215148 93 261 6.0 0.0 0.00 0.00 0.00 64 1014.2
20260901214647 93 248 5.0 0.0 0.00 0.00 0.00 64 1014.2
20260901214147 93 230 7.0 0.0 0.00 0.00 0.00 64 1014.1
20260901213647 93 252 7.0 0.0 0.00 0.00 0.00 62 1014.2
20260901213148 93 249 7.0 0.0 0.00 0.00 0.00 63 1014.2
20260901212146 93 246 4.0 0.0 0.00 0.00 0.00 64 1014.3
20260901211646 93 260 7.0 0.0 0.00 0.00 0.00 64 1014.4
20260901211146 93 261 6.0 0.0 0.00 0.00 0.00 64 1014.4
20260901210646 93 259 8.0 0.0 0.00 0.00 0.00 63 1014.4
20260901210145 93 246 8.0 0.0 0.00 0.00 0.00 61 1014.4
20260901205144 94 252 8.0 0.0 0.00 0.00 0.00 62 1014.4
20260901204644 94 241 8.0 0.0 0.00 0.00 0.00 61 1014.4
20260901204144 94 248 8.0 0.0 0.00 0.00 0.00 61 1014.4
20260901203643 94 222 6.0 0.0 0.00 0.00 0.00 63 1014.4